Regional Weather Roundup
Issued by NWS

Home | Current Version | Previous Version | Graphics & Text | Print | Product List | Glossary On
Versions: 1 2 3 4 5 6 7 8 9 10 11 12 13 14 15 16 17 18 19 20 21 22 23 24 25 26 27 28 29 30 31 32 33 34 35 36 37 38 39 40 41 42 43 44 45 46 47 48 49 50
000
ASUS43 KOAX 260402
RWRNE

WEATHER ROUNDUP FOR NEBRASKA
NATIONAL WEATHER SERVICE OMAHA NE
1100 PM CDT SAT APR 25 2015

NOTES: SATELLITE DATA IS BEING USED TO AUGMENT CLOUD COVER ABOVE
       12000 FEET.
       "FAIR" INDICATES FEW OR NO CLOUDS BELOW 12,000 FEET WITH NO
       SIGNIFICANT WEATHER AND/OR OBSTRUCTIONS TO VISIBILITY.

  * THESE STATIONS DO NOT REPORT WEATHER SUCH AS RAIN...SNOW OR FOG.

NEZ001>004-019>022-054>056-260500-
NEBRASKA PANHANDLE

CITY           SKY/WX    TMP DP  RH WIND       PRES   REMARKS
SCOTTSBLUFF    CLOUDY    52  47  83 E7        29.79R
ALLIANCE       CLOUDY    50  46  86 E12       29.82S
CHADRON        CLOUDY    50  48  93 E5        29.82R
KIMBALL        HVY RAIN  46  45  95 SW10      29.85R
SIDNEY         LGT RAIN  51  46  83 E6        29.83R
$$

NEZ057>060-069>072-079>082-260500-
SOUTHWEST NEBRASKA

CITY           SKY/WX    TMP DP  RH WIND       PRES   REMARKS
IMPERIAL       CLOUDY    52  47  83 E15G23    29.80R
LEXINGTON      CLOUDY    51  46  84 E12       29.85R
MCCOOK         CLOUDY    51  47  86 E16       29.82R
OGALLALA       CLOUDY    52  49  87 E17       29.83R
$$

NEZ005>010-023>029-035>040-094-260500-
NORTH CENTRAL NEBRASKA

CITY           SKY/WX    TMP DP  RH WIND       PRES   REMARKS
VALENTINE      CLOUDY    54  45  71 E7        29.87R
AINSWORTH      CLOUDY    47  43  85 E5        29.88R
BROKEN BOW     CLOUDY    51  46  83 E12       29.86R
O`NEILL        CLOUDY    51  46  81 SE5       29.89R
ORD            PTCLDY    46  42  86 CALM      29.87R
$$

NEZ041-046>049-061>064-073>077-083>087-260500-
SOUTH CENTRAL NEBRASKA

CITY           SKY/WX    TMP DP  RH WIND       PRES   REMARKS
GRAND ISLAND   CLOUDY    49  44  83 E14       29.88R
AURORA         CLOUDY    49  47  93 E14       29.87R
HASTINGS       CLOUDY    48  45  89 NE12      29.85R FOG
HEBRON         CLOUDY    49  46  90 E10       29.85R FOG
HOLDREGE       CLOUDY    47  45  93 NE14      29.84R FOG
KEARNEY *      CLOUDY    48  45  87 E14G20    29.87R
YORK           CLOUDY    48  45  87 E17       29.87R
$$

NEZ011>018-030>034-042>045-260500-
NORTHEAST NEBRASKA

CITY           SKY/WX    TMP DP  RH WIND       PRES   REMARKS
NORFOLK        CLOUDY    51  42  71 E10       29.90R
ALBION         CLOUDY    50  43  76 E9        29.89R
BLAIR          CLOUDY    48  42  78 NE10      29.88R
COLUMBUS *     CLOUDY    48  41  76 E7        29.90R
FREMONT        CLOUDY    51  44  76 NE9       29.89R
TEKAMAH        CLOUDY    48  43  82 NE7       29.90R
WAYNE          CLOUDY    51  42  71 E10       29.91R
$$

NEZ050>053-065>068-078-088>093-260500-
SOUTHEAST NEBRASKA

CITY           SKY/WX    TMP DP  RH WIND       PRES   REMARKS
LINCOLN        CLOUDY    50  45  83 NE9       29.88R
OMAHA EPPLEY   CLOUDY    51  43  74 NE12      29.88R
BEATRICE       CLOUDY    48  45  88 NE10      29.85S
FALLS CITY     CLOUDY    49  46  90 NE7       29.84R
NEBRASKA CITY  CLOUDY    49  45  84 E16       29.86R
PLATTSMOUTH    CLOUDY    49  44  83 NE13      29.87R
$$

NEZ044-045-051>053-067-260500-
OMAHA AREA

CITY           SKY/WX    TMP DP  RH WIND       PRES   REMARKS
OMAHA EPPLEY   CLOUDY    51  43  74 NE12      29.88R
BLAIR          CLOUDY    48  42  78 NE10      29.88R
FREMONT        CLOUDY    51  44  76 NE9       29.89R
MILLARD        CLOUDY    51  44  75 E3        29.88R
OFFUTT AFB     CLOUDY    50  44  79 NE9       29.87R
PLATTSMOUTH    CLOUDY    49  44  83 NE13      29.87R
WAHOO          CLOUDY    50  44  79 NE8       29.88R
$$



USA.gov is the U.S. government's official web portal to all federal, state and local government web resources and services.